Year,Month,Day,Hour,Minute,Value (Times are PST for temperature in C)
2011,04,21,00,00,3.60
2011,04,21,00,01,3.60
2011,04,21,00,02,3.50
2011,04,21,00,03,3.50
2011,04,21,00,04,3.50
2011,04,21,00,05,3.50
2011,04,21,00,06,3.40
2011,04,21,00,07,3.40
2011,04,21,00,08,3.40
2011,04,21,00,09,3.40
2011,04,21,00,10,3.40
2011,04,21,00,11,3.30
2011,04,21,00,12,3.30
2011,04,21,00,13,3.30
2011,04,21,00,14,3.30
2011,04,21,00,15,3.30
2011,04,21,00,16,3.30
2011,04,21,00,17,3.30
2011,04,21,00,18,3.30
2011,04,21,00,19,3.20
2011,04,21,00,20,3.20
2011,04,21,00,21,3.20
2011,04,21,00,22,3.20
2011,04,21,00,23,3.20
2011,04,21,00,24,3.20
2011,04,21,00,25,3.20
2011,04,21,00,26,3.20
2011,04,21,00,27,3.20
2011,04,21,00,28,3.20
2011,04,21,00,29,3.20
2011,04,21,00,30,3.20
2011,04,21,00,31,3.20
2011,04,21,00,32,3.20
2011,04,21,00,33,3.20
2011,04,21,00,34,3.20
2011,04,21,00,35,3.20
2011,04,21,00,36,3.20
2011,04,21,00,37,3.20
2011,04,21,00,38,3.20
2011,04,21,00,39,3.20
2011,04,21,00,40,3.20
2011,04,21,00,41,3.10
2011,04,21,00,42,3.10
2011,04,21,00,43,3.10
2011,04,21,00,44,3.10
2011,04,21,00,45,3.10
2011,04,21,00,46,3.10
2011,04,21,00,47,3.10
2011,04,21,00,48,3.10
2011,04,21,00,49,3.10
2011,04,21,00,50,3.10
2011,04,21,00,51,3.10
2011,04,21,00,52,3.10
2011,04,21,00,53,3.10
2011,04,21,00,54,3.10
2011,04,21,00,55,3.00
2011,04,21,00,56,3.00
2011,04,21,00,57,2.90
2011,04,21,00,58,2.90
2011,04,21,00,59,2.90
2011,04,21,01,00,2.90
2011,04,21,01,01,2.90
2011,04,21,01,02,2.90
2011,04,21,01,03,2.90
2011,04,21,01,04,2.90
2011,04,21,01,05,2.90
2011,04,21,01,06,2.90
2011,04,21,01,07,2.90
2011,04,21,01,08,2.90
2011,04,21,01,09,2.80
2011,04,21,01,10,2.80
2011,04,21,01,11,2.80
2011,04,21,01,12,2.70
2011,04,21,01,13,2.70
2011,04,21,01,14,2.60
2011,04,21,01,15,2.60
2011,04,21,01,16,2.60
2011,04,21,01,17,2.50
2011,04,21,01,18,2.50
2011,04,21,01,19,2.40
2011,04,21,01,20,2.40
2011,04,21,01,21,2.40
2011,04,21,01,22,2.40
2011,04,21,01,23,2.40
2011,04,21,01,24,2.30
2011,04,21,01,25,2.30
2011,04,21,01,26,2.30
2011,04,21,01,27,2.30
2011,04,21,01,28,2.30
2011,04,21,01,29,2.30
2011,04,21,01,30,2.20
2011,04,21,01,31,2.20
2011,04,21,01,32,2.20
2011,04,21,01,33,2.20
2011,04,21,01,34,2.20
2011,04,21,01,35,2.20
2011,04,21,01,36,2.20
2011,04,21,01,37,2.20
2011,04,21,01,38,2.20
2011,04,21,01,39,2.20
2011,04,21,01,40,2.20
2011,04,21,01,41,2.20
2011,04,21,01,42,2.20
2011,04,21,01,43,2.20
2011,04,21,01,44,2.20
2011,04,21,01,45,2.20
2011,04,21,01,46,2.20
2011,04,21,01,47,2.20
2011,04,21,01,48,2.20
2011,04,21,01,49,2.20
2011,04,21,01,50,2.20
2011,04,21,01,51,2.20
2011,04,21,01,52,2.20
2011,04,21,01,53,2.20
2011,04,21,01,54,2.20
2011,04,21,01,55,2.20
2011,04,21,01,56,2.20
2011,04,21,01,57,2.20
2011,04,21,01,58,2.20
2011,04,21,01,59,2.30
2011,04,21,02,00,2.30
2011,04,21,02,01,2.30
2011,04,21,02,02,2.30
2011,04,21,02,03,2.40
2011,04,21,02,04,2.40
2011,04,21,02,05,2.40
2011,04,21,02,06,2.50
2011,04,21,02,07,2.50
2011,04,21,02,08,2.60
2011,04,21,02,09,2.60
2011,04,21,02,10,2.60
2011,04,21,02,11,2.70
2011,04,21,02,12,2.70
2011,04,21,02,13,2.80
2011,04,21,02,14,2.80
2011,04,21,02,15,2.80
2011,04,21,02,16,2.80
2011,04,21,02,17,2.80
2011,04,21,02,18,2.80
2011,04,21,02,19,2.80
2011,04,21,02,20,2.80
2011,04,21,02,21,2.80
2011,04,21,02,22,2.80
2011,04,21,02,23,2.80
2011,04,21,02,24,2.80
2011,04,21,02,25,2.80
2011,04,21,02,26,2.80
2011,04,21,02,27,2.70
2011,04,21,02,28,2.70
2011,04,21,02,29,2.70
2011,04,21,02,30,2.70
2011,04,21,02,31,2.70
2011,04,21,02,32,2.70
2011,04,21,02,33,2.70
2011,04,21,02,34,2.70
2011,04,21,02,35,2.70
2011,04,21,02,36,2.70
2011,04,21,02,37,2.60
2011,04,21,02,38,2.60
2011,04,21,02,39,2.60
2011,04,21,02,40,2.60
2011,04,21,02,41,2.60
2011,04,21,02,42,2.50
2011,04,21,02,43,2.50
2011,04,21,02,44,2.50
2011,04,21,02,45,2.50
2011,04,21,02,46,2.40
2011,04,21,02,47,2.40
2011,04,21,02,48,2.40
2011,04,21,02,49,2.40
2011,04,21,02,50,2.40
2011,04,21,02,51,2.30
2011,04,21,02,52,2.30
2011,04,21,02,53,2.30
2011,04,21,02,54,2.30
2011,04,21,02,55,2.30
2011,04,21,02,56,2.30
2011,04,21,02,57,2.20
2011,04,21,02,58,2.20
2011,04,21,02,59,2.20
2011,04,21,03,00,2.20
2011,04,21,03,01,2.20
2011,04,21,03,02,2.20
2011,04,21,03,03,2.20
2011,04,21,03,04,2.20
2011,04,21,03,05,2.20
2011,04,21,03,06,2.10
2011,04,21,03,07,2.10
2011,04,21,03,08,2.10
2011,04,21,03,09,2.10
2011,04,21,03,10,2.10
2011,04,21,03,11,2.10
2011,04,21,03,12,2.10
2011,04,21,03,13,2.10
2011,04,21,03,14,2.10
2011,04,21,03,15,2.10
2011,04,21,03,16,2.10
2011,04,21,03,17,2.10
2011,04,21,03,18,2.10
2011,04,21,03,19,2.10
2011,04,21,03,20,2.10
2011,04,21,03,21,2.10
2011,04,21,03,22,2.10
2011,04,21,03,23,2.10
2011,04,21,03,24,2.00
2011,04,21,03,25,2.00
2011,04,21,03,26,2.00
2011,04,21,03,27,2.00
2011,04,21,03,28,2.00
2011,04,21,03,29,2.00
2011,04,21,03,30,1.90
2011,04,21,03,31,1.90
2011,04,21,03,32,1.90
2011,04,21,03,33,1.90
2011,04,21,03,34,1.90
2011,04,21,03,35,1.90
2011,04,21,03,36,1.80
2011,04,21,03,37,1.80
2011,04,21,03,38,1.80
2011,04,21,03,39,1.80
2011,04,21,03,40,1.80
2011,04,21,03,41,1.80
2011,04,21,03,42,1.80
2011,04,21,03,43,1.80
2011,04,21,03,44,1.80
2011,04,21,03,45,1.80
2011,04,21,03,46,1.80
2011,04,21,03,47,1.80
2011,04,21,03,48,1.80
2011,04,21,03,49,1.80
2011,04,21,03,50,1.70
2011,04,21,03,51,1.70
2011,04,21,03,52,1.70
2011,04,21,03,53,1.70
2011,04,21,03,54,1.70
2011,04,21,03,55,1.70
2011,04,21,03,56,1.70
2011,04,21,03,57,1.70
2011,04,21,03,58,1.70
2011,04,21,03,59,1.70
2011,04,21,04,00,1.70
2011,04,21,04,01,1.70
2011,04,21,04,02,1.70
2011,04,21,04,03,1.70
2011,04,21,04,04,1.70
2011,04,21,04,05,1.60
2011,04,21,04,06,1.60
2011,04,21,04,07,1.60
2011,04,21,04,08,1.60
2011,04,21,04,09,1.60
2011,04,21,04,10,1.50
2011,04,21,04,11,1.50
2011,04,21,04,12,1.50
2011,04,21,04,13,1.50
2011,04,21,04,14,1.50
2011,04,21,04,15,1.40
2011,04,21,04,16,1.40
2011,04,21,04,17,1.40
2011,04,21,04,18,1.40
2011,04,21,04,19,1.40
2011,04,21,04,20,1.40
2011,04,21,04,21,1.30
2011,04,21,04,22,1.30
2011,04,21,04,23,1.30
2011,04,21,04,24,1.30
2011,04,21,04,25,1.30
2011,04,21,04,26,1.20
2011,04,21,04,27,1.20
2011,04,21,04,28,1.20
2011,04,21,04,29,1.20
2011,04,21,04,30,1.20
2011,04,21,04,31,1.20
2011,04,21,04,32,1.20
2011,04,21,04,33,1.10
2011,04,21,04,34,1.10
2011,04,21,04,35,1.10
2011,04,21,04,36,1.10
2011,04,21,04,37,1.10
2011,04,21,04,38,1.10
2011,04,21,04,39,1.00
2011,04,21,04,40,1.00
2011,04,21,04,41,1.00
2011,04,21,04,42,1.00
2011,04,21,04,43,1.00
2011,04,21,04,44,0.90
2011,04,21,04,45,0.90
2011,04,21,04,46,0.90
2011,04,21,04,47,0.80
2011,04,21,04,48,0.80
2011,04,21,04,49,0.80
2011,04,21,04,50,0.80
2011,04,21,04,51,0.80
2011,04,21,04,52,0.70
2011,04,21,04,53,0.70
2011,04,21,04,54,0.70
2011,04,21,04,55,0.70
2011,04,21,04,56,0.70
2011,04,21,04,57,0.70
2011,04,21,04,58,0.70
2011,04,21,04,59,0.60
2011,04,21,05,00,0.60
2011,04,21,05,01,0.60
2011,04,21,05,02,0.60
2011,04,21,05,03,0.60
2011,04,21,05,04,0.60
2011,04,21,05,05,0.60
2011,04,21,05,06,0.60
2011,04,21,05,07,0.60
2011,04,21,05,08,0.60
2011,04,21,05,09,0.60
2011,04,21,05,10,0.70
2011,04,21,05,11,0.70
2011,04,21,05,12,0.70
2011,04,21,05,13,0.70
2011,04,21,05,14,0.70
2011,04,21,05,15,0.70
2011,04,21,05,16,0.70
2011,04,21,05,17,0.70
2011,04,21,05,18,0.70
2011,04,21,05,19,0.70
2011,04,21,05,20,0.70
2011,04,21,05,21,0.70
2011,04,21,05,22,0.70
2011,04,21,05,23,0.70
2011,04,21,05,24,0.80
2011,04,21,05,25,0.80
2011,04,21,05,26,0.80
2011,04,21,05,27,0.80
2011,04,21,05,28,0.80
2011,04,21,05,29,0.80
2011,04,21,05,30,0.80
2011,04,21,05,31,0.80
2011,04,21,05,32,0.80
2011,04,21,05,33,0.70
2011,04,21,05,34,0.70
2011,04,21,05,35,0.70
2011,04,21,05,36,0.70
2011,04,21,05,37,0.70
2011,04,21,05,38,0.70
2011,04,21,05,39,0.60
2011,04,21,05,40,0.60
2011,04,21,05,41,0.60
2011,04,21,05,42,0.60
2011,04,21,05,43,0.60
2011,04,21,05,44,0.60
2011,04,21,05,45,0.50
2011,04,21,05,46,0.50
2011,04,21,05,47,0.50
2011,04,21,05,48,0.50
2011,04,21,05,49,0.40
2011,04,21,05,50,0.40
2011,04,21,05,51,0.40
2011,04,21,05,52,0.40
2011,04,21,05,53,0.40
2011,04,21,05,54,0.40
2011,04,21,05,55,0.40
2011,04,21,05,56,0.40
2011,04,21,05,57,0.40
2011,04,21,05,58,0.40
2011,04,21,05,59,0.40
2011,04,21,06,00,0.40
2011,04,21,06,01,0.40
2011,04,21,06,02,0.30
2011,04,21,06,03,0.30
2011,04,21,06,04,0.30
2011,04,21,06,05,0.30
2011,04,21,06,06,0.30
2011,04,21,06,07,0.30
2011,04,21,06,08,0.30
2011,04,21,06,09,0.30
2011,04,21,06,10,0.30
2011,04,21,06,11,0.30
2011,04,21,06,12,0.30
2011,04,21,06,13,0.30
2011,04,21,06,14,0.40
2011,04,21,06,15,0.40
2011,04,21,06,16,0.40
2011,04,21,06,17,0.50
2011,04,21,06,18,0.50
2011,04,21,06,19,0.60
2011,04,21,06,20,0.60
2011,04,21,06,21,0.60
2011,04,21,06,22,0.60
2011,04,21,06,23,0.60
2011,04,21,06,24,0.70
2011,04,21,06,25,0.70
2011,04,21,06,26,0.70
2011,04,21,06,27,0.70
2011,04,21,06,28,0.70
2011,04,21,06,29,0.70
2011,04,21,06,30,0.70
2011,04,21,06,31,0.70
2011,04,21,06,32,0.70
2011,04,21,06,33,0.70
2011,04,21,06,34,0.70
2011,04,21,06,35,0.70
2011,04,21,06,36,0.70
2011,04,21,06,37,0.70
2011,04,21,06,38,0.70
2011,04,21,06,39,0.70
2011,04,21,06,40,0.70
2011,04,21,06,41,0.70
2011,04,21,06,42,0.70
2011,04,21,06,43,0.70
2011,04,21,06,44,0.70
2011,04,21,06,45,0.70
2011,04,21,06,46,0.70
2011,04,21,06,47,0.70
2011,04,21,06,48,0.70
2011,04,21,06,49,0.60
2011,04,21,06,50,0.60
2011,04,21,06,51,0.60
2011,04,21,06,52,0.60
2011,04,21,06,53,0.60
2011,04,21,06,54,0.60
2011,04,21,06,55,0.60
2011,04,21,06,56,0.60
2011,04,21,06,57,0.50
2011,04,21,06,58,0.50
2011,04,21,06,59,0.50
2011,04,21,07,00,0.50
2011,04,21,07,01,0.50
2011,04,21,07,02,0.50
2011,04,21,07,03,0.50
2011,04,21,07,04,0.50
2011,04,21,07,05,0.50
2011,04,21,07,06,0.50
2011,04,21,07,07,0.50
2011,04,21,07,08,0.60
2011,04,21,07,09,0.60
2011,04,21,07,10,0.60
2011,04,21,07,11,0.60
2011,04,21,07,12,0.70
2011,04,21,07,13,0.70
2011,04,21,07,14,0.80
2011,04,21,07,15,0.90
2011,04,21,07,16,1.00
2011,04,21,07,17,1.10
2011,04,21,07,18,1.20
2011,04,21,07,19,1.20
2011,04,21,07,20,1.30
2011,04,21,07,21,1.30
2011,04,21,07,22,1.30
2011,04,21,07,23,1.40
2011,04,21,07,24,1.40
2011,04,21,07,25,1.50
2011,04,21,07,26,1.50
2011,04,21,07,27,1.50
2011,04,21,07,28,1.50
2011,04,21,07,29,1.50
2011,04,21,07,30,1.50
2011,04,21,07,31,1.40
2011,04,21,07,32,1.40
2011,04,21,07,33,1.40
2011,04,21,07,34,1.40
2011,04,21,07,35,1.40
2011,04,21,07,36,1.40
2011,04,21,07,37,1.40
2011,04,21,07,38,1.40
2011,04,21,07,39,1.50
2011,04,21,07,40,1.50
2011,04,21,07,41,1.60
2011,04,21,07,42,1.70
2011,04,21,07,43,1.80
2011,04,21,07,44,1.90
2011,04,21,07,45,2.10
2011,04,21,07,46,2.20
2011,04,21,07,47,2.40
2011,04,21,07,48,2.60
2011,04,21,07,49,2.70
2011,04,21,07,50,2.90
2011,04,21,07,51,3.00
2011,04,21,07,52,3.10
2011,04,21,07,53,3.20
2011,04,21,07,54,3.30
2011,04,21,07,55,3.40
2011,04,21,07,56,3.50
2011,04,21,07,57,3.60
2011,04,21,07,58,3.70
2011,04,21,07,59,3.80
2011,04,21,08,00,3.90
2011,04,21,08,01,4.00
2011,04,21,08,02,4.10
2011,04,21,08,03,4.10
2011,04,21,08,04,4.20
2011,04,21,08,05,4.20
2011,04,21,08,06,4.20
2011,04,21,08,07,4.30
2011,04,21,08,08,4.30
2011,04,21,08,09,4.40
2011,04,21,08,10,4.40
2011,04,21,08,11,4.50
2011,04,21,08,12,4.50
2011,04,21,08,13,4.60
2011,04,21,08,14,4.60
2011,04,21,08,15,4.70
2011,04,21,08,16,4.70
2011,04,21,08,17,4.80
2011,04,21,08,18,4.80
2011,04,21,08,19,4.90
2011,04,21,08,20,5.00
2011,04,21,08,21,5.10
2011,04,21,08,22,5.10
2011,04,21,08,23,5.20
2011,04,21,08,24,5.30
2011,04,21,08,25,5.40
2011,04,21,08,26,5.40
2011,04,21,08,27,5.50
2011,04,21,08,28,5.60
2011,04,21,08,29,5.70
2011,04,21,08,30,5.70
2011,04,21,08,31,5.80
2011,04,21,08,32,5.80
2011,04,21,08,33,5.90
2011,04,21,08,34,6.00
2011,04,21,08,35,6.10
2011,04,21,08,36,6.10
2011,04,21,08,37,6.20
2011,04,21,08,38,6.30
2011,04,21,08,39,6.30
2011,04,21,08,40,6.40
2011,04,21,08,41,6.50
2011,04,21,08,42,6.50
2011,04,21,08,43,6.70
2011,04,21,08,44,6.70
2011,04,21,08,45,6.80
2011,04,21,08,46,6.90
2011,04,21,08,47,7.00
2011,04,21,08,48,7.10
2011,04,21,08,49,7.10
2011,04,21,08,50,7.20
2011,04,21,08,51,7.20
2011,04,21,08,52,7.30
2011,04,21,08,53,7.30
2011,04,21,08,54,7.40
2011,04,21,08,55,7.40
2011,04,21,08,56,7.40
2011,04,21,08,57,7.50
2011,04,21,08,58,7.50
2011,04,21,08,59,7.50
2011,04,21,09,00,7.50
2011,04,21,09,01,7.40
2011,04,21,09,02,7.40
2011,04,21,09,03,7.40
2011,04,21,09,04,7.30
2011,04,21,09,05,7.40
2011,04,21,09,06,7.40
2011,04,21,09,07,7.40
2011,04,21,09,08,7.40
2011,04,21,09,09,7.50
2011,04,21,09,10,7.50
2011,04,21,09,11,7.50
2011,04,21,09,12,7.60
2011,04,21,09,13,7.60
2011,04,21,09,14,7.70
2011,04,21,09,15,7.70
2011,04,21,09,16,7.70
2011,04,21,09,17,7.70
2011,04,21,09,18,7.70
2011,04,21,09,19,7.70
2011,04,21,09,20,7.70
2011,04,21,09,21,7.70
2011,04,21,09,22,7.70
2011,04,21,09,23,7.70
2011,04,21,09,24,7.70
2011,04,21,09,25,7.70
2011,04,21,09,26,7.80
2011,04,21,09,27,7.80
2011,04,21,09,28,7.80
2011,04,21,09,29,7.90
2011,04,21,09,30,7.90
2011,04,21,09,31,7.90
2011,04,21,09,32,7.90
2011,04,21,09,33,8.00
2011,04,21,09,34,8.00
2011,04,21,09,35,8.10
2011,04,21,09,36,8.10
2011,04,21,09,37,8.20
2011,04,21,09,38,8.20
2011,04,21,09,39,8.20
2011,04,21,09,40,8.30
2011,04,21,09,41,8.30
2011,04,21,09,42,8.40
2011,04,21,09,43,8.40
2011,04,21,09,44,8.40
2011,04,21,09,45,8.30
2011,04,21,09,46,8.30
2011,04,21,09,47,8.30
2011,04,21,09,48,8.20
2011,04,21,09,49,8.10
2011,04,21,09,50,8.10
2011,04,21,09,51,8.10
2011,04,21,09,52,8.00
2011,04,21,09,53,8.00
2011,04,21,09,54,7.90
2011,04,21,09,55,7.90
2011,04,21,09,56,7.90
2011,04,21,09,57,7.90
2011,04,21,09,58,7.90
2011,04,21,09,59,7.90
2011,04,21,10,00,7.90
2011,04,21,10,01,7.90
2011,04,21,10,02,7.90
2011,04,21,10,03,7.90
2011,04,21,10,04,8.00
2011,04,21,10,05,8.00
2011,04,21,10,06,8.10
2011,04,21,10,07,8.10
2011,04,21,10,08,8.10
2011,04,21,10,09,8.10
2011,04,21,10,10,8.10
2011,04,21,10,11,8.20
2011,04,21,10,12,8.20
2011,04,21,10,13,8.20
2011,04,21,10,14,8.20
2011,04,21,10,15,8.20
2011,04,21,10,16,8.30
2011,04,21,10,17,8.30
2011,04,21,10,18,8.40
2011,04,21,10,19,8.50
2011,04,21,10,20,8.50
2011,04,21,10,21,8.50
2011,04,21,10,22,8.60
2011,04,21,10,23,8.60
2011,04,21,10,24,8.60
2011,04,21,10,25,8.60
2011,04,21,10,26,8.70
2011,04,21,10,27,8.70
2011,04,21,10,28,8.80
2011,04,21,10,29,8.70
2011,04,21,10,30,8.80
2011,04,21,10,31,8.80
2011,04,21,10,32,8.80
2011,04,21,10,33,8.80
2011,04,21,10,34,8.80
2011,04,21,10,35,8.70
2011,04,21,10,36,8.60
2011,04,21,10,37,8.50
2011,04,21,10,38,8.40
2011,04,21,10,39,8.50
2011,04,21,10,40,8.60
2011,04,21,10,41,8.60
2011,04,21,10,42,8.60
2011,04,21,10,43,8.60
2011,04,21,10,44,8.70
2011,04,21,10,45,8.80
2011,04,21,10,46,8.80
2011,04,21,10,47,8.80
2011,04,21,10,48,8.80
2011,04,21,10,49,8.90
2011,04,21,10,50,8.90
2011,04,21,10,51,8.80
2011,04,21,10,52,8.70
2011,04,21,10,53,8.70
2011,04,21,10,54,8.60
2011,04,21,10,55,8.60
2011,04,21,10,56,8.50
2011,04,21,10,57,8.50
2011,04,21,10,58,8.60
2011,04,21,10,59,8.70
2011,04,21,11,00,8.70
2011,04,21,11,01,8.60
2011,04,21,11,02,8.60
2011,04,21,11,03,8.50
2011,04,21,11,04,8.50
2011,04,21,11,05,8.50
2011,04,21,11,06,8.50
2011,04,21,11,07,8.50
2011,04,21,11,08,8.50
2011,04,21,11,09,8.50
2011,04,21,11,10,8.50
2011,04,21,11,11,8.40
2011,04,21,11,12,8.40
2011,04,21,11,13,8.40
2011,04,21,11,14,8.50
2011,04,21,11,15,8.50
2011,04,21,11,16,8.50
2011,04,21,11,17,8.60
2011,04,21,11,18,8.60
2011,04,21,11,19,8.60
2011,04,21,11,20,8.70
2011,04,21,11,21,8.70
2011,04,21,11,22,8.70
2011,04,21,11,23,8.50
2011,04,21,11,24,8.50
2011,04,21,11,25,8.60
2011,04,21,11,26,8.60
2011,04,21,11,27,8.60
2011,04,21,11,28,8.60
2011,04,21,11,29,8.60
2011,04,21,11,30,8.60
2011,04,21,11,31,8.60
2011,04,21,11,32,8.60
2011,04,21,11,33,8.60
2011,04,21,11,34,8.60
2011,04,21,11,35,8.60
2011,04,21,11,36,8.60
2011,04,21,11,37,8.60
2011,04,21,11,38,8.60
2011,04,21,11,39,8.60
2011,04,21,11,40,8.50
2011,04,21,11,41,8.50
2011,04,21,11,42,8.50
2011,04,21,11,43,8.60
2011,04,21,11,44,8.70
2011,04,21,11,45,8.70
2011,04,21,11,46,8.80
2011,04,21,11,47,8.90
2011,04,21,11,48,8.90
2011,04,21,11,49,9.00
2011,04,21,11,50,9.00
2011,04,21,11,51,9.10
2011,04,21,11,52,9.10
2011,04,21,11,53,9.10
2011,04,21,11,54,9.20
2011,04,21,11,55,9.20
2011,04,21,11,56,9.20
2011,04,21,11,57,9.20
2011,04,21,11,58,9.20
2011,04,21,11,59,9.30
2011,04,21,12,00,9.30
2011,04,21,12,01,9.40
2011,04,21,12,02,9.40
2011,04,21,12,03,9.40
2011,04,21,12,04,9.40
2011,04,21,12,05,9.40
2011,04,21,12,06,9.40
2011,04,21,12,07,9.40
2011,04,21,12,08,9.40
2011,04,21,12,09,9.40
2011,04,21,12,10,9.40
2011,04,21,12,11,9.50
2011,04,21,12,12,9.50
2011,04,21,12,13,9.60
2011,04,21,12,14,9.60
2011,04,21,12,15,9.70
2011,04,21,12,16,9.70
2011,04,21,12,17,9.70
2011,04,21,12,18,9.80
2011,04,21,12,19,9.80
2011,04,21,12,20,9.70
2011,04,21,12,21,9.80
2011,04,21,12,22,9.80
2011,04,21,12,23,9.90
2011,04,21,12,24,9.90
2011,04,21,12,25,9.90
2011,04,21,12,26,10.00
2011,04,21,12,27,10.10
2011,04,21,12,28,10.10
2011,04,21,12,29,10.10
2011,04,21,12,30,10.00
2011,04,21,12,31,9.90
2011,04,21,12,32,9.90
2011,04,21,12,33,9.90
2011,04,21,12,34,9.90
2011,04,21,12,35,9.90
2011,04,21,12,36,9.80
2011,04,21,12,37,9.80
2011,04,21,12,38,9.70
2011,04,21,12,39,9.70
2011,04,21,12,40,9.60
2011,04,21,12,41,9.60
2011,04,21,12,42,9.70
2011,04,21,12,43,9.70
2011,04,21,12,44,9.70
2011,04,21,12,45,9.80
2011,04,21,12,46,9.80
2011,04,21,12,47,9.70
2011,04,21,12,48,9.70
2011,04,21,12,49,9.70
2011,04,21,12,50,9.60
2011,04,21,12,51,9.60
2011,04,21,12,52,9.60
2011,04,21,12,53,9.60
2011,04,21,12,54,9.60
2011,04,21,12,55,9.70
2011,04,21,12,56,9.70
2011,04,21,12,57,9.70
2011,04,21,12,58,9.70
2011,04,21,12,59,9.70
2011,04,21,13,00,9.80
2011,04,21,13,01,9.80
2011,04,21,13,02,9.80
2011,04,21,13,03,9.70
2011,04,21,13,04,9.70
2011,04,21,13,05,9.70
2011,04,21,13,06,9.80
2011,04,21,13,07,9.80
2011,04,21,13,08,9.80
2011,04,21,13,09,9.80
2011,04,21,13,10,9.80
2011,04,21,13,11,9.80
2011,04,21,13,12,9.80
2011,04,21,13,13,9.80
2011,04,21,13,14,9.80
2011,04,21,13,15,9.80
2011,04,21,13,16,9.90
2011,04,21,13,17,9.90
2011,04,21,13,18,9.90
2011,04,21,13,19,9.90
2011,04,21,13,20,9.90
2011,04,21,13,21,9.90
2011,04,21,13,22,10.00
2011,04,21,13,23,10.10
2011,04,21,13,24,10.10
2011,04,21,13,25,10.10
2011,04,21,13,26,10.10
2011,04,21,13,27,10.20
2011,04,21,13,28,10.20
2011,04,21,13,29,10.30
2011,04,21,13,30,10.30
2011,04,21,13,31,10.30
2011,04,21,13,32,10.30
2011,04,21,13,33,10.30
2011,04,21,13,34,10.30
2011,04,21,13,35,10.40
2011,04,21,13,36,10.40
2011,04,21,13,37,10.30
2011,04,21,13,38,10.30
2011,04,21,13,39,10.30
2011,04,21,13,40,10.30
2011,04,21,13,41,10.30
2011,04,21,13,42,10.30
2011,04,21,13,43,10.40
2011,04,21,13,44,10.50
2011,04,21,13,45,10.60
2011,04,21,13,46,10.70
2011,04,21,13,47,10.70
2011,04,21,13,48,10.80
2011,04,21,13,49,10.90
2011,04,21,13,50,10.90
2011,04,21,13,51,10.90
2011,04,21,13,52,11.00
2011,04,21,13,53,11.00
2011,04,21,13,54,11.10
2011,04,21,13,55,11.10
2011,04,21,13,56,11.10
2011,04,21,13,57,11.20
2011,04,21,13,58,11.20
2011,04,21,13,59,11.20
2011,04,21,14,00,11.30
2011,04,21,14,01,11.20
2011,04,21,14,02,11.20
2011,04,21,14,03,11.20
2011,04,21,14,04,11.10
2011,04,21,14,05,11.00
2011,04,21,14,06,11.00
2011,04,21,14,07,11.00
2011,04,21,14,08,11.00
2011,04,21,14,09,11.00
2011,04,21,14,10,10.90
2011,04,21,14,11,11.00
2011,04,21,14,12,11.10
2011,04,21,14,13,11.10
2011,04,21,14,14,11.10
2011,04,21,14,15,11.20
2011,04,21,14,16,11.20
2011,04,21,14,17,11.20
2011,04,21,14,18,11.20
2011,04,21,14,19,11.10
2011,04,21,14,20,11.00
2011,04,21,14,21,10.90
2011,04,21,14,22,10.80
2011,04,21,14,23,10.90
2011,04,21,14,24,10.90
2011,04,21,14,25,10.80
2011,04,21,14,26,10.90
2011,04,21,14,27,11.00
2011,04,21,14,28,11.20
2011,04,21,14,29,11.20
2011,04,21,14,30,11.30
2011,04,21,14,31,11.50
2011,04,21,14,32,11.60
2011,04,21,14,33,11.70
2011,04,21,14,34,11.70
2011,04,21,14,35,11.70
2011,04,21,14,36,11.70
2011,04,21,14,37,11.80
2011,04,21,14,38,11.80
2011,04,21,14,39,11.90
2011,04,21,14,40,12.00
2011,04,21,14,41,12.00
2011,04,21,14,42,12.00
2011,04,21,14,43,12.00
2011,04,21,14,44,11.90
2011,04,21,14,45,11.80
2011,04,21,14,46,11.80
2011,04,21,14,47,11.70
2011,04,21,14,48,11.60
2011,04,21,14,49,11.60
2011,04,21,14,50,11.40
2011,04,21,14,51,11.30
2011,04,21,14,52,11.30
2011,04,21,14,53,11.40
2011,04,21,14,54,11.40
2011,04,21,14,55,11.40
2011,04,21,14,56,11.40
2011,04,21,14,57,11.50
2011,04,21,14,58,11.60
2011,04,21,14,59,11.60
2011,04,21,15,00,11.70
2011,04,21,15,01,11.80
2011,04,21,15,02,11.90
2011,04,21,15,03,11.90
2011,04,21,15,04,11.80
2011,04,21,15,05,11.70
2011,04,21,15,06,11.50
2011,04,21,15,07,11.50
2011,04,21,15,08,11.30
2011,04,21,15,09,11.20
2011,04,21,15,10,11.10
2011,04,21,15,11,11.10
2011,04,21,15,12,11.10
2011,04,21,15,13,11.20
2011,04,21,15,14,11.20
2011,04,21,15,15,11.30
2011,04,21,15,16,11.40
2011,04,21,15,17,11.50
2011,04,21,15,18,11.60
2011,04,21,15,19,11.60
2011,04,21,15,20,11.50
2011,04,21,15,21,11.30
2011,04,21,15,22,11.30
2011,04,21,15,23,11.20
2011,04,21,15,24,11.20
2011,04,21,15,25,11.20
2011,04,21,15,26,11.20
2011,04,21,15,27,11.10
2011,04,21,15,28,10.90
2011,04,21,15,29,10.90
2011,04,21,15,30,10.90
2011,04,21,15,31,10.80
2011,04,21,15,32,10.80
2011,04,21,15,33,10.70
2011,04,21,15,34,10.70
2011,04,21,15,35,10.70
2011,04,21,15,36,10.70
2011,04,21,15,37,10.70
2011,04,21,15,38,10.70
2011,04,21,15,39,10.70
2011,04,21,15,40,10.70
2011,04,21,15,41,10.80
2011,04,21,15,42,10.80
2011,04,21,15,43,10.80
2011,04,21,15,44,10.70
2011,04,21,15,45,10.70
2011,04,21,15,46,10.80
2011,04,21,15,47,10.80
2011,04,21,15,48,10.90
2011,04,21,15,49,10.90
2011,04,21,15,50,10.90
2011,04,21,15,51,10.90
2011,04,21,15,52,10.80
2011,04,21,15,53,10.80
2011,04,21,15,54,10.80
2011,04,21,15,55,10.80
2011,04,21,15,56,10.80
2011,04,21,15,57,10.80
2011,04,21,15,58,10.80
2011,04,21,15,59,10.90
2011,04,21,16,00,10.90
2011,04,21,16,01,11.00
2011,04,21,16,02,11.00
2011,04,21,16,03,11.10
2011,04,21,16,04,11.10
2011,04,21,16,05,11.10
2011,04,21,16,06,11.10
2011,04,21,16,07,11.20
2011,04,21,16,08,11.20
2011,04,21,16,09,11.20
2011,04,21,16,10,11.20
2011,04,21,16,11,11.20
2011,04,21,16,12,11.20
2011,04,21,16,13,11.20
2011,04,21,16,14,11.10
2011,04,21,16,15,11.10
2011,04,21,16,16,11.20
2011,04,21,16,17,11.20
2011,04,21,16,18,11.20
2011,04,21,16,19,11.10
2011,04,21,16,20,11.10
2011,04,21,16,21,11.10
2011,04,21,16,22,11.10
2011,04,21,16,23,11.00
2011,04,21,16,24,11.00
2011,04,21,16,25,11.00
2011,04,21,16,26,11.00
2011,04,21,16,27,10.90
2011,04,21,16,28,10.80
2011,04,21,16,29,10.80
2011,04,21,16,30,10.80
2011,04,21,16,31,10.90
2011,04,21,16,32,11.00
2011,04,21,16,33,11.10
2011,04,21,16,34,11.10
2011,04,21,16,35,11.10
2011,04,21,16,36,11.10
2011,04,21,16,37,11.10
2011,04,21,16,38,11.10
2011,04,21,16,39,11.10
2011,04,21,16,40,11.20
2011,04,21,16,41,11.10
2011,04,21,16,42,11.10
2011,04,21,16,43,11.20
2011,04,21,16,44,11.20
2011,04,21,16,45,11.20
2011,04,21,16,46,11.20
2011,04,21,16,47,11.10
2011,04,21,16,48,11.10
2011,04,21,16,49,11.10
2011,04,21,16,50,11.00
2011,04,21,16,51,11.00
2011,04,21,16,52,11.00
2011,04,21,16,53,11.00
2011,04,21,16,54,11.00
2011,04,21,16,55,10.90
2011,04,21,16,56,11.00
2011,04,21,16,57,11.10
2011,04,21,16,58,11.10
2011,04,21,16,59,11.00
2011,04,21,17,00,11.00
2011,04,21,17,01,10.90
2011,04,21,17,02,10.80
2011,04,21,17,03,10.80
2011,04,21,17,04,10.80
2011,04,21,17,05,10.80
2011,04,21,17,06,10.80
2011,04,21,17,07,10.70
2011,04,21,17,08,10.70
2011,04,21,17,09,10.60
2011,04,21,17,10,10.60
2011,04,21,17,11,10.70
2011,04,21,17,12,10.60
2011,04,21,17,13,10.60
2011,04,21,17,14,10.70
2011,04,21,17,15,10.70
2011,04,21,17,16,10.80
2011,04,21,17,17,10.80
2011,04,21,17,18,10.80
2011,04,21,17,19,10.90
2011,04,21,17,20,10.90
2011,04,21,17,21,10.90
2011,04,21,17,22,10.90
2011,04,21,17,23,10.80
2011,04,21,17,24,10.80
2011,04,21,17,25,10.80
2011,04,21,17,26,10.80
2011,04,21,17,27,10.80
2011,04,21,17,28,10.70
2011,04,21,17,29,10.70
2011,04,21,17,30,10.60
2011,04,21,17,31,10.60
2011,04,21,17,32,10.50
2011,04,21,17,33,10.50
2011,04,21,17,34,10.40
2011,04,21,17,35,10.30
2011,04,21,17,36,10.30
2011,04,21,17,37,10.30
2011,04,21,17,38,10.30
2011,04,21,17,39,10.40
2011,04,21,17,40,10.40
2011,04,21,17,41,10.40
2011,04,21,17,42,10.40
2011,04,21,17,43,10.40
2011,04,21,17,44,10.40
2011,04,21,17,45,10.50
2011,04,21,17,46,10.50
2011,04,21,17,47,10.50
2011,04,21,17,48,10.50
2011,04,21,17,49,10.40
2011,04,21,17,50,10.40
2011,04,21,17,51,10.40
2011,04,21,17,52,10.40
2011,04,21,17,53,10.40
2011,04,21,17,54,10.30